Flag for Thailand Weather past 2 weeks in Udon Thani, Thailand

Now
81 °F

Light rain. Cloudy.


Feels Like: 87 °F
Forecast: 75 / 80 °F
Wind: 3 mph from Southeast

Location: Udon Thani Airport

Current Time: Aug 31, 2015 at 12:35:24 PM

Latest Report: Aug 31, 2015 at 12:00 PM


Visibility: 3 mi

Pressure: 29.80 "Hg

Humidity: 89%

Dew point: 77 °F

Location of Udon ThaniLocation

Historic Weather in Udon Thani — Graph

°F

Udon Thani temperature yesterday

Maximum temperature yesterday: 88 °F (at 1:00 PM)
Minimum temperature yesterday: 79 °F (at 6:00 AM)
Average temperature yesterday: 83 °F

Past Weeks' High & Low Weather Summary

 TemperatureHumidityPressure
High95 °F (Aug 17, 2:00 PM)100% (Aug 17, 6:00 AM)29.86 "Hg (Aug 17, 6:00 AM)
Low75 °F (Aug 26, 8:00 AM)53% (Aug 16, 4:00 PM)29.59 "Hg (Aug 22, 5:00 PM)
Average85 °F74%29.73 "Hg
* Reported Aug 16 11:00 AM — Aug 31 11:00 AM, Udon Thani, Weather by CustomWeather, © 2015

Note: Actual official high and low records may vary slightly from our data, if they occured in-between our weather recording intervals... More about our weather records

Advertising

Udon Thani weather history for previous 24 hours

 ConditionsComfort  
Time TempWeatherWind HumidityBarometerVisibility
11:00 AM
Mon, Aug 31
79 °FLight rain. More clouds than sun.3 mph100%29.80 "Hg3 mi
10:00 AM79 °FLight rain. Partly sunny.5 mph100%29.80 "Hg2 mi
9:00 AM79 °FLight rain. Broken clouds.3 mph100%29.80 "Hg2 mi
8:00 AM79 °FLight rain. Mostly cloudy.5 mph94%29.77 "Hg2 mi
7:00 AM79 °FLight rain. Mostly cloudy.2 mph94%29.77 "Hg2 mi
6:00 AM79 °FLight rain. Mostly cloudy.3 mph94%29.74 "Hg2 mi
10:00 PM
Sun, Aug 30
81 °FPassing clouds.5 mph89%29.77 "HgN/A
9:00 PM81 °FPassing clouds.5 mph89%29.77 "HgN/A
8:00 PM82 °FClear.5 mph89%29.74 "Hg10 mi
7:00 PM82 °FClear.3 mph84%29.71 "Hg10 mi
6:00 PM84 °FSunny.5 mph79%29.71 "Hg10 mi
5:00 PM86 °FBroken clouds.3 mph79%29.71 "HgN/A
4:00 PM86 °FOvercast.2 mph70%29.71 "HgN/A
3:00 PM86 °FMore clouds than sun.5 mph70%29.71 "HgN/A
2:00 PM86 °FMostly cloudy.3 mph66%29.74 "HgN/A
1:00 PM88 °FScattered clouds.3 mph66%29.77 "HgN/A
12:00 PM86 °FBroken clouds.2 mph75%29.77 "HgN/A
Weather by CustomWeather, © 2015

See weather overviewHow to use our weather pages